Location: Pasadena, ca
(34.1243°N, 118.1037°W)
Time: 08:58:02
(UTC-07:00)

ISS - Visible Passes

Search period start: 24 September 2017 00:00
Search period end: 04 October 2017 00:00
Orbit: 401 x 407 km, 51.6° (Epoch: 25 September)

Date Brightness Start Highest point End Pass type
(mag) Time Alt. Az. Time Alt. Az. Time Alt. Az.
24 Sep -2.5 19:14:19 10° S 19:16:57 23° SE 19:19:35 10° ENE visible
24 Sep -1.4 20:50:30 10° W 20:52:28 23° WNW 20:52:28 23° WNW visible
25 Sep -3.1 19:57:42 10° WSW 20:00:53 52° NW 20:02:57 20° NNE visible
26 Sep -3.8 19:05:18 10° SW 19:08:32 68° SE 19:11:48 10° NE visible
26 Sep -0.9 20:43:36 10° WNW 20:45:19 13° NNW 20:45:54 13° NNW visible
27 Sep -1.5 19:50:06 10° W 19:52:44 22° NW 19:55:22 10° NNE visible
29 Sep -0.9 19:43:29 10° NW 19:44:41 12° NNW 19:45:54 10° N visible
